Flag for U.S.A. Weather past 2 weeks in Trenton, New Jersey, U.S.A.

Now
26 °F

Sunny.


Feels Like: 18 °F
Forecast: 16 / 24 °F
Wind: 7 mph from North

Location: Mercer County Airport

Current Time: Feb 27, 2015 at 12:54:43 PM

Latest Report: Feb 27, 2015 at 11:53 AM


Visibility: 10 mi

Pressure: 30.39 "Hg

Humidity: 42%

Dew point: 6 °F

Location of TrentonLocation

Historic Weather in Trenton — Graph

°F

Trenton temperature yesterday

Maximum temperature yesterday: 29 °F (at 1:53 AM)
Minimum temperature yesterday: 21 °F (at 11:53 PM)
Average temperature yesterday: 26 °F

Past Weeks' High & Low Weather Summary

 TemperatureHumidityPressure
High42 °F (Feb 22, 3:53 PM)92% (Feb 21, 7:53 PM)30.50 "Hg (Feb 21, 7:53 PM)
Low0 °F (Feb 20, 6:53 AM)25% (Feb 23, 2:53 PM)29.46 "Hg (Feb 14, 8:53 PM)
Average19 °F55%30.04 "Hg
* Reported Feb 12 11:04 AM — Feb 27 11:53 AM, Trenton, Weather by CustomWeather, © 2015

Note: Actual official high and low records may vary slightly from our data, if they occured in-between our weather recording intervals... More about our weather records

Advertising

Trenton weather history for previous 24 hours

 ConditionsComfort  
Time TempWeatherWind HumidityBarometerVisibility
11:53 AM
Fri, Feb 27
26 °FSunny.7 mph42%30.39 "Hg10 mi
10:53 AM25 °FSunny.8 mph46%30.40 "Hg10 mi
9:53 AM22 °FSunny.7 mph50%30.38 "Hg10 mi
8:53 AM20 °FPartly sunny.7 mph57%30.37 "Hg10 mi
7:53 AM19 °FOvercast.7 mph59%30.34 "Hg10 mi
6:53 AM19 °FOvercast.9 mph59%30.31 "Hg10 mi
5:53 AM20 °FOvercast.9 mph62%30.28 "Hg10 mi
4:53 AM21 °FOvercast.6 mph62%30.24 "Hg10 mi
3:53 AM21 °FOvercast.6 mph65%30.21 "Hg10 mi
2:53 AM21 °FOvercast.3 mph68%30.19 "Hg10 mi
1:53 AM20 °FPassing clouds.6 mph71%30.18 "Hg10 mi
12:53 AM21 °FClear.5 mph68%30.14 "Hg10 mi
11:53 PM
Thu, Feb 26
21 °FPassing clouds.No wind68%30.13 "Hg10 mi
10:53 PM23 °FClear.5 mph63%30.12 "Hg10 mi
9:53 PM23 °FClear.No wind65%30.11 "Hg10 mi
8:53 PM24 °FPassing clouds.3 mph62%30.09 "Hg10 mi
7:53 PM26 °FPassing clouds.N/A57%30.07 "Hg10 mi
6:53 PM26 °FOvercast.3 mph60%30.03 "Hg10 mi
5:53 PM27 °FOvercast.6 mph61%30.00 "Hg10 mi
4:53 PM28 °FOvercast.6 mph58%29.98 "Hg10 mi
3:53 PM28 °FOvercast.6 mph58%29.95 "Hg10 mi
2:53 PM28 °FOvercast.9 mph61%29.93 "Hg10 mi
1:53 PM28 °FOvercast.10 mph58%29.89 "Hg10 mi
12:53 PM27 °FSunny.13 mph53%29.90 "Hg10 mi
Weather by CustomWeather, © 2015

See weather overviewHow to use our weather pages